Regional Weather Roundup
Issued by NWS Green Bay, WI

Home | Current Version | Previous Version | Graphics & Text | Print | Product List | Glossary Off
Versions: 1 2 3 4 5 6 7 8 9 10 11 12 13 14 15 16 17 18 19 20 21 22 23 24 25 26 27 28 29 30 31 32 33 34 35 36 37 38 39 40 41 42 43 44 45 46 47 48 49 50

000
ASUS43 KGRB 220011
RWRGRB

NORTH-CENTRAL AND NORTHEAST WISCONSIN REGIONAL WEATHER ROUNDUP
NATIONAL WEATHER SERVICE GREEN BAY WI
700 PM CDT SAT APR 21 2018

WIZ005-009-010>012-018-019-220100-
NORTH CENTRAL WISCONSIN

CITY           SKY/WX    TMP DP  RH WIND       PRES   REMARKS
IRONWOOD       FAIR      53  15  22 NE6       30.34S
MANITOWISH WTR FAIR      55  11  17 S3        30.32S
ARBOR VITAE    FAIR      56  12  17 CALM      30.32S
EAGLE RIVER    FAIR      51  12  21 W5        30.31S
LAND O LAKES   FAIR      56   5  12 CALM      30.32S
RHINELANDER    FAIR      54  18  24 VRB3      30.32F
PHILLIPS       FAIR      54  17  23 SW5       30.32F
ANTIGO         FAIR      49  28  44 W6        30.34F
TOMAHAWK       FAIR      51  20  29 CALM      30.33S
MERRILL          N/A     54  27  36 SW5       30.34S
$$

WIZ013-073-220100-
NORTHEAST WISCONSIN

CITY           SKY/WX    TMP DP  RH WIND       PRES   REMARKS
IRON MOUNTAIN  FAIR      59  13  16 NE5       30.29S
MARINETTE      FAIR      51  23  33 SW7       30.35S
OCONTO         FAIR      52  21  30 S5        30.34F
$$

WIZ017-030-035>037-045-220100-
CENTRAL WISCONSIN

CITY           SKY/WX    TMP DP  RH WIND       PRES   REMARKS
MEDFORD        FAIR      51  26  37 SE3       30.33S
WAUSAU         FAIR      53  25  33 NW5       30.32F
MOSINEE        CLEAR     52  25  35 W5        30.34F
MARSHFIELD     FAIR      52  28  39 SE7       30.32F
WISC RAPIDS    FAIR      55  25  31 CALM      30.35S
STEVENS POINT  FAIR      52  25  35 SE5       30.35R
WAUPACA        FAIR      55  25  30 E5        30.35S
SHAWANO        FAIR      56  20  24 S3        30.34S
CLINTONVILLE   FAIR      52  20  28 S6        30.34F
WAUTOMA        FAIR      56  26  31 NW5       30.35R
$$

WIZ038-039-048-051-220100-
FOX VALLEY

CITY           SKY/WX    TMP DP  RH WIND       PRES   REMARKS
NWS GREEN BAY  FAIR      50  23  34 S5        30.35F
APPLETON       PTCLDY    52  25  35 SE5       30.34F
OSHKOSH        FAIR      51  33  50 CALM      30.35F
FOND DU LAC    FAIR      52  27  38 SW3       30.35F
$$

WIZ022-050-052-220100-
EAST CENTRAL WISCONSIN

CITY           SKY/WX    TMP DP  RH WIND       PRES   REMARKS
EPHRAIM        FAIR      50  22  33 S7        30.35S
WASHINGTON ISL FAIR      43  27  54 S3        30.35S
STURGEON BAY   FAIR      49  25  39 S7        30.36F
MANITOWOC      FAIR      45  27  49 E5        30.37F
SHEBOYGAN      FAIR      52  27  38 SE5       30.36S
$$

LMZ563-521-522-541>543-220100-
LAKESHORE

STATION/POSITION TIME  TEMP    WIND        PRES    VSBY  WAVE
                       AIR SEA DIR/SP/G                  HT/PER
                 (UTC) (F)     (DEG/KT/KT) (MB)    (MI)  (FT/S)
SHEBOYGAN LKSHOR 0000   40      CALM  /  1 1028.6F
KEWAUNEE LKSHORE 2342   40     180/  7/  9 1027.4F
NORTHPORT PIER   2340   51                 1027.4F
SISTER BAY LKSHO 2312   55     170/  6/  9   N/A
MENOMINEE LKSHOR 2342   49     180/  8/ 10 1027.2F
$$




USA.gov is the U.S. government's official web portal to all federal, state and local government web resources and services.